907  
ASUS44 KLCH 160110  
RWRLCH  
REGIONAL WEATHER ROUNDUP  
NATIONAL WEATHER SERVICE LAKE CHARLES LA  
800 PM CDT MON OCT 15 2018  
 
NOTE: "FAIR" INDICATES FEW OR NO CLOUDS BELOW 12,000 FEET WITH NO  
SIGNIFICANT WEATHER AND/OR S TO VISIBILITY
.  
 
ACROSS SOUTHEAST TEXAS  
 
CITY SKY/WX TMP DP RH WIND PRES REMARKS
 
BEAUMONT RAIN 70 66 87 N12 30.04R  
BEAUMONT CITY NOT AVBL  
ORANGE CLOUDY 69 69 100 N8 30.05R  
JASPER CLOUDY 66 64 92 NW7 30.13R  

 
 
ACROSS CENTRAL LOUISIANA  
 
CITY SKY/WX TMP DP RH WIND PRES REMARKS
 
LEESVILLE CLOUDY 68 65 90 N10G21 30.06R  
FULLERTON LGT RAIN 68 68 100 CALM 30.08R  
ALEXANDRIA INT CLOUDY 70 62 76 N10G18 30.08R  
ESLER FIELD CLOUDY 69 63 81 NE8 30.09R  
DERIDDER LGT RAIN 69 67 95 N8 30.09R  
OAKDALE CLOUDY 72 69 90 N7 30.06R  
OPELOUSAS MOCLDY 74 69 83 N12G20 30.05R  

 
 
ACROSS SOUTHWEST AND SOUTH CENTRAL LOUISIANA  
 
CITY SKY/WX TMP DP RH WIND PRES REMARKS
 
DEQUINCY LGT RAIN 68 67 96 CALM 30.06R  
SULPHUR CLOUDY 74 73 98 N6 30.04R  
LAKE CHARLES CLOUDY 76 74 93 N13 30.03R  
CHENNAULT INT CLOUDY 73 72 94 N16 30.04R  
CAMERON PHI CLOUDY 77 75 94 N8 30.01R  
GRAND CHENIER CLOUDY 77 73 88 NE9 30.01S  
JENNINGS CLOUDY 75 74 95 N5 30.04R  
LAFAYETTE FAIR 77 74 90 NE8 30.03R  
NEW IBERIA FAIR 78 72 81 NE8 30.02S  
ABBEVILLE CLOUDY 77 74 90 N3 30.02S  
PATTERSON FAIR 78 77 96 CALM 30.02R  
SALT POINT NOT AVBL  

 
 
SELECTED SITES ACROSS THE REGION  
 
CITY SKY/WX TMP DP RH WIND PRES REMARKS
 
HOUSTON BUSH CLOUDY 55 54 96 N16 30.06F  
HOUSTON HOBBY CLOUDY 57 53 86 N15G24 30.06R  
GALVESTON CLOUDY 65 64 97 N24G35 30.03S  
COLLEGE STAT LGT RAIN 48 47 96 N14 30.13R  
CONROE LGT RAIN 52 52 100 NE9G16 30.09F  
HUNTSVILLE RAIN 48 48 100 VRB7G20 30.10F FOG  
LUFKIN HVY RAIN 53 53 100 NW10 30.14F  
SHREVEPORT LGT RAIN 56 55 97 N12 30.20R  
MONROE CLOUDY 61 56 83 N14 30.17S  
NATCHEZ MS CLOUDY 70 65 84 N9 30.11R  
BATON ROUGE RAIN 76 75 97 E3 30.04S FOG  
N.O. INTL ARPT CLOUDY 79 76 90 NE14 30.04S  
SLIDELL CLOUDY 75 73 93 N6 30.06R  

 
 
MARINE REPORTS  
 
STATION/POSITION TIME SKY/WX TEMP WIND PRES VSBY
 
AIR SEA DIR/SP/G  
(UTC) (F) (DEG/KT/KT) (MB) (MI)  
BUOY 30 S HIGH I 0050 72 82 350/ 19/ 23 1016.5R  
WVE H/P(F/S)= 4/ 4  
 
SEA RIM ST PARK 0000 73 10/ 13/ 15 1016.3R  
PORT ARTHUR NOT AVBL  
SABINE PASS N NOT AVBL  
TEXAS POINT NOT AVBL  
CALCASIEU PASS 2348 76 80 50/ 8/ 11 1014.9  
LK CHARLES BEACH 2348 74 80 1015.8  
MARSH ISLAND NOT AVBL  
FRESH WATER LOCK NOT AVBL  
AMERADA PASS 2348 82 79 1015.9  

 
 
 
CLICK HERE TO GO TO PREVIOUS BULLETINS.

The Nexlab LA Page
The Nexlab TX Page Main Text Page